Regional Weather Roundup
Issued by NWS

Home | Current Version | Previous Version | Graphics & Text | Print | Product List | Glossary On
Versions: 1 2 3 4 5 6 7 8 9 10 11 12 13 14 15 16 17 18 19 20 21 22 23 24 25 26 27 28 29 30 31 32 33 34 35 36 37 38 39 40 41 42 43 44 45 46 47 48 49 50
768
ASUS43 KBIS 010710
RWRND

NORTH DAKOTA REGIONAL WEATHER ROUNDUP
NATIONAL WEATHER SERVICE BISMARCK ND
200 AM CDT SUN MAY 01 2016

NOTE: "FAIR" INDICATES FEW OR NO CLOUDS BELOW 12,000 FEET WITH NO
SIGNIFICANT WEATHER AND/OR OBSTRUCTIONS TO VISIBILITY.


NDZ001>003-009>011-017-010800-
NORTHWEST NORTH DAKOTA

CITY           SKY/WX    TMP DP  RH WIND       PRES   REMARKS
WILLISTON      CLEAR     40  29  64 N3        30.33R
MINOT          CLOUDY    40  27  59 N8        30.31S
MINOT AFB      CLOUDY    35  28  75 N7        30.31R
$$

NDZ018>021-031>035-040>046-010800-
SOUTHWEST NORTH DAKOTA

CITY           SKY/WX    TMP DP  RH WIND       PRES   REMARKS
BISMARCK       CLEAR     37  31  78 NE3       30.29R
DICKINSON      CLEAR     36  26  67 NW7       30.28R
GARRISON         N/A     41  30  65 NE7       30.30R
HETTINGER ARPT CLEAR     28  24  85 W6        30.30R
$$

NDZ004>008-012>016-024-026-027-054-010800-
NORTHEAST NORTH DAKOTA

CITY           SKY/WX    TMP DP  RH WIND       PRES   REMARKS
GRAND FORKS    CLEAR     41  27  57 E7        30.26S
GRND FRKS AFB  CLEAR     34  25  69 N6        30.26S
DEVILS LAKE    CLEAR     36  30  79 N9        30.30R
$$

NDZ022-023-025-028>030-036>039-047>053-010800-
SOUTHEAST NORTH DAKOTA

CITY           SKY/WX    TMP DP  RH WIND       PRES   REMARKS
FARGO          CLEAR     41  27  57 NE6       30.23R
JAMESTOWN      CLEAR     37  27  67 N9        30.24S
$$





USA.gov is the U.S. government's official web portal to all federal, state and local government web resources and services.